TimeEDT,TemperatureF,Dew PointF,Humidity,Sea Level PressureIn,VisibilityMPH,Wind Direction,Wind SpeedMPH,Gust SpeedMPH,PrecipitationIn,Events,Conditions,WindDirDegrees,DateUTC
12:54 AM,57.0,54.0,89,30.12,10.0,Calm,Calm,-,N/A,,Clear,0,2013-08-07 04:54:00
1:54 AM,55.9,54.0,93,30.13,10.0,Calm,Calm,-,N/A,,Clear,0,2013-08-07 05:54:00
2:54 AM,54.0,53.1,97,30.14,8.0,Calm,Calm,-,N/A,,Clear,0,2013-08-07 06:54:00
3:36 AM,53.6,51.8,94,30.13,1.8,Calm,Calm,-,N/A,,Partly Cloudy,0,2013-08-07 07:36:00
3:39 AM,51.8,51.8,100,30.13,1.0,SSW,3.5,-,N/A,,Mist,200,2013-08-07 07:39:00
3:46 AM,51.8,51.8,100,30.13,0.2,Calm,Calm,-,N/A,Fog,Fog,0,2013-08-07 07:46:00
3:54 AM,52.0,51.1,97,30.15,0.5,Calm,Calm,-,N/A,Fog,Fog,0,2013-08-07 07:54:00
3:58 AM,51.8,51.8,100,30.14,1.5,Calm,Calm,-,N/A,,Scattered Clouds,0,2013-08-07 07:58:00
4:03 AM,53.6,51.8,94,30.14,3.0,Calm,Calm,-,N/A,,Scattered Clouds,0,2013-08-07 08:03:00
4:10 AM,53.6,51.8,94,30.14,2.5,West,3.5,-,N/A,,Partly Cloudy,260,2013-08-07 08:10:00
4:20 AM,51.8,51.8,100,30.14,10.0,WSW,4.6,-,N/A,,Clear,250,2013-08-07 08:20:00
4:54 AM,50.0,50.0,100,30.16,10.0,SSW,3.5,-,N/A,,Clear,200,2013-08-07 08:54:00
5:54 AM,51.1,50.0,96,30.17,10.0,Calm,Calm,-,N/A,,Clear,0,2013-08-07 09:54:00
6:54 AM,55.9,53.1,90,30.18,10.0,Calm,Calm,-,N/A,,Clear,0,2013-08-07 10:54:00
7:54 AM,60.1,55.9,86,30.19,10.0,Calm,Calm,-,N/A,,Clear,0,2013-08-07 11:54:00
8:54 AM,64.0,57.9,80,30.18,10.0,Calm,Calm,-,N/A,,Clear,0,2013-08-07 12:54:00
9:54 AM,70.0,59.0,68,30.17,10.0,Variable,3.5,-,N/A,,Clear,0,2013-08-07 13:54:00
10:54 AM,73.0,57.0,57,30.17,10.0,Variable,3.5,-,N/A,,Clear,0,2013-08-07 14:54:00
11:54 AM,75.9,57.0,52,30.16,10.0,Calm,Calm,-,N/A,,Clear,0,2013-08-07 15:54:00
12:54 PM,75.9,54.0,46,30.15,10.0,ESE,5.8,-,N/A,,Partly Cloudy,120,2013-08-07 16:54:00
1:54 PM,77.0,53.1,43,30.14,10.0,South,6.9,-,N/A,,Partly Cloudy,170,2013-08-07 17:54:00
2:54 PM,78.1,55.0,45,30.13,10.0,Variable,4.6,-,N/A,,Overcast,0,2013-08-07 18:54:00
3:54 PM,75.0,55.0,50,30.13,10.0,SSE,5.8,-,N/A,,Mostly Cloudy,160,2013-08-07 19:54:00
4:54 PM,75.0,57.9,55,30.12,10.0,Calm,Calm,-,N/A,,Overcast,0,2013-08-07 20:54:00
5:54 PM,75.9,57.9,54,30.10,10.0,South,4.6,-,N/A,,Overcast,170,2013-08-07 21:54:00
6:54 PM,73.9,55.9,53,30.09,10.0,South,4.6,-,N/A,,Partly Cloudy,190,2013-08-07 22:54:00
7:54 PM,70.0,55.0,59,30.09,10.0,South,5.8,-,N/A,,Clear,190,2013-08-07 23:54:00
8:54 PM,64.9,55.0,70,30.09,10.0,Calm,Calm,-,N/A,,Clear,0,2013-08-08 00:54:00
9:54 PM,64.0,54.0,70,30.10,10.0,SSE,3.5,-,N/A,,Clear,160,2013-08-08 01:54:00
10:54 PM,61.0,53.1,75,30.09,10.0,Calm,Calm,-,N/A,,Clear,0,2013-08-08 02:54:00
11:54 PM,60.1,53.1,78,30.10,10.0,Calm,Calm,-,N/A,,Clear,0,2013-08-08 03:54:00